sat.trackr.live / text

‹ back to catalog

KINEIS-4D

NORAD 63302 · 2025-056C

PAYLOAD ACTIVE UNKNOWN

§ Identity

Operator
Country
FR
Launch date
2025-03-18
Launch site
RLLB
Launch vehicle
Mass (kg)
RCS (m²)

External: N2YO · Heavens-Above · Gunter

§ Orbital elements

Epoch: 2026-05-25T03:49:49.133280Z

Period
97.80 min
Inclination
97.8985°
Eccentricity
0.0003633
Mean motion
14.72324824 rev/d
Perigee alt
651.1 km
Apogee alt
656.2 km
Semi-major
7,031.8 km
B*
2.0328e-4
RAAN
269.9286°
Arg perigee
69.4320°
Mean anomaly
290.7277°
Rev number
6,374

§ Raw data

KINEIS-4D1 63302U 25056C   26145.15959645  .00001237  00000+0  20328-3 0  99942 63302  97.8985 269.9286 0003633  69.4320 290.7277 14.72324824 63744

JSON: /api/v1/satellites/63302 · /tle

For live sub-satellite position, see the globe view (requires WebGL).

§ Visibility from observer

Set your observer location to see the next 7 days of passes ≥ 10°. The values pass through the URL so the page stays shareable.

No JS? Fill the form by hand. The geolocation button needs JavaScript.

§ Radio — SatNOGS DB

ModeDescriptionDownlinkUplink
FM Mode U 400.651 MHz

1 transmitter · refreshed weekly from db.satnogs.org